SCP
0 0 0 0 0 0 0 0 0 0 0 0 0 0 0 0 0 0 0 0 0 0 0 0 0 0 0 0 0 0 0 0 0 0 0 0 0 0 0 0 0 0 0
0 0 0 0 0 0 0 0 0 0 0 0 0 0 0 0 0 0 0 0 0 0 0 0 0 0 0 0 0 0 0 0 0 0 0 0 0 0 0 0 0 0 0
0 0 0 0 0 0 0 0 0 0 0 0 0 0 0 0 0 0 0 0 0 0 0 0 0 0 0 0 0 0 0 0 0 0 0 0 0 0 0 0 0 0 0
0 0 0 0 0 0 0 0 0 0 0 0 0 0 0 0 0 0 0 0 0 0 0 0 0 0 0 0 0 0 0 0 0 0 0 0 0 0 0 0 0 0 0
0 0 0 0 0 0 0 0 0 0 0 0 0 0 0 0 0 0 0 0 0 0 0 0 0 0 0 0 0 0 0 0 0 0 0 0 0 0 0 0 0 0 0
0 0 0 0 0 0 0 0 0 0 0 0 0 0 0 0 0 0 0 0 0 0 0 0 0 0 0 0 0 0 0 0 0 0 0 0 0 0 0 0 0 0 0
0 0 0 0 0 0 0 0 0 0 0 0 0 0 0 0 0 0 0 0 0 0 0 0 0 0 0 0 0 0 0 0 0 0 0 0 0 0 0 0 0 0 0
0 0 0 0 0 0 0 0 0 0 0 0 0 0 0 0 0 0 0 0 0 0 0 0 -0 0 0 0 0 0 0 0 0 0 0 0 0 0 0 0 0 0 0
0 0 0 0 0 0 0 0 0 0 0 0 0 0 0 0 0 0 0 0 0 0 0 0 0 0 0 0 0 0 0 0 0 0 0 0 0 0 0 0 0 0 0
0 0 0 0 0 0 0 0 0 0 0 0 0 0 0 0 0 0 0 0 0 0 0 0 0 0 0 0 0 0 0 0 0 0 0 0 0 0 0 0 0 0 0
0 0 0 0 0 0 0 0 0 0 0 0 0 0 0 0 0 0 0 0 0 0 0 0 0 0 0 0 0 0 0 0 0 0 0 0 0 0 0 0 0 0 0
0 0 0 0 0 0 0 0 0 0 0 0 0 0 0 0 0 0 0 0 0 0 0 0 0 0 0 0 0 0 0 0 0 0 0 0 0 0 0 0 0 0 0
0 0 0 0 0 0 0 0 0 0 0 0 0 0 0 0 0 0 0 0 0 0 0 0 0 0 0 0 0 0 0 0 0 0 0 0 0 0 0 0 0 0 0
0 0 0 0 0 0 0 0 0 0 0 0 0 0 0 0 0 0 0 0 0 0 0 0 0 0 0 0 0 0 0 0 0 0 0 0 0 0 0 0 0 0 0
0 0 0 0 0 0 0 0 0 0 0 0 0 0 0 0 0 0 0 0 0 0 0 0 0 0 0 0 0 0 0 0 0 0 0 0 0 0 0 0 0 0 0
0 0 0 0 0 0 0 0 0 0 0 0 0 0 0 0 0 0 0 0 0 0 0 0 0 0 0 0 0 0 0 0 0 0 0 0 0 0 0 0 0 0 0
0 0 0 0 0 0 0 0 0 0 0 0 0 0 0 0 0 0 0 0 0 0 0 0 0 0 0 0 0 0 0 0 0 0 0 0 0 0 0 0 0 0 0
0 0 0 0 0 0 0 0 0 0 0 0 0 0 0 0 0 0 0 0 0 0 0 0 0 0 0 0 0 0 0 0 0 0 0 0 0 0 0 0 0 0 0
0 0 0 0 0 0 0 0 0 0 0 0 0 0 0 0 0 0 0 0 0 0 0 0 0 0 0 0 0 0 0 0 0 0 0 0 0 0 0 0 0 0 0
0 0 0 0 0 0 0 0 0 0 0 0 0 0 0 0 0 0 0 0 0 0 0 0 0 0 0 0 0 0 0 0 0 0 0 0 0 0 0 0 0 0 0
0 0 0 0 0 0 0 0 0 0 0 0 0 0 0 0 0 0 0 0 0 0 0 0 0 0 0 0 0 0 0 0 0 0 0 0 0 0 0 0 0 0 0
0 0 0 0 0 0 0 0 0 0 0 0 0 0 0 0 0 0 0 0 0 0 0 0 0 0 0 0 0 0 0 0 0 0 0 0 0 0 0 0 0 0 0
0 0 0 0 0 0 0 0 0 0 0 0 0 0 0 0 0 0 0 0 0 0 0 0 0 0 0 0 0 0 0 0 0 0 0 0 0 0 0 0 0 0 0
0 0 0 0 0 0 0 0 0 0 0 0 0 0 0 0 0 0 0 0 0 0 0 0 0 0 0 0 0 0 0 0 0 0 0 0 0 0 0 0 -0 0 0
0 0 0 0 0 0 0 0 0 0 0 0 0 0 0 0 0 0 0 0 0 0 0 0 0 0 0 0 0 0 0 0 0 0 0 0 0 0 0 -0 0 0 0
0 0 0 0 0 0 0 0 0 0 0 0 0 0 0 0 0 0 0 0 0 0 0 0 0 0 0 0 0 0 0 0 0 0 0 0 0 -0 -0 0 0 0 0
Wind_Speed_500mb
21 23 25 25 25 25 24 23 22 21 20 21 22 22 23 24 25 25 27 27 28 29 29 28 30 32 32 33 33 31 33 33 35 34 34 32 31 33 40 42 45 49 53
22 24 23 22 23 25 26 24 21 18 18 20 22 24 25 25 26 25 23 22 23 24 25 26 28 31 34 35 34 35 36 35 33 34 37 38 35 31 36 38 38 39 43
22 22 22 23 25 27 28 24 22 21 20 21 23 24 25 26 23 20 18 18 20 24 30 34 31 32 35 37 38 39 38 38 38 37 34 32 31 31 31 33 37 35 37
21 21 22 25 27 28 25 20 17 17 19 20 21 21 23 19 15 13 16 24 29 25 29 32 36 39 44 46 48 48 47 45 42 35 33 35 33 34 32 36 39 40 40
20 21 24 27 28 28 24 20 20 20 18 17 20 21 17 12 10 9 31 18 27 25 27 36 42 45 48 50 51 51 49 43 35 31 32 31 33 37 37 36 37 35 36
21 23 27 30 30 27 24 22 21 22 23 22 20 20 14 8 5 22 21 28 22 31 36 43 47 51 51 50 50 49 49 48 46 41 44 43 41 39 38 37 38 40 41
23 25 28 30 30 27 24 22 21 21 21 22 19 17 9 11 2 35 20 23 24 36 41 51 54 53 52 52 50 48 46 47 48 47 45 38 33 38 42 41 41 40 39
24 27 29 30 30 28 26 24 23 22 21 22 25 21 10 10 7 35 28 23 30 37 47 51 51 51 54 48 43 43 44 46 48 50 47 42 43 42 44 44 45 45 45
25 27 29 31 32 31 27 26 26 24 23 21 22 16 10 8 45 16 34 25 49 41 52 53 52 54 45 41 41 43 46 49 52 56 57 59 57 51 47 49 50 50 49
28 28 29 30 31 32 30 29 29 28 28 26 26 24 25 29 22 28 28 54 48 57 56 55 58 46 43 39 44 44 47 53 55 57 59 61 63 59 54 53 53 54 54
31 32 33 34 33 33 32 32 33 34 34 33 32 34 36 37 40 40 60 62 69 60 60 62 58 52 39 44 41 44 52 55 57 60 61 64 66 66 62 58 55 56 57
37 40 43 44 44 42 39 37 38 40 40 41 41 42 42 43 50 49 61 73 76 73 63 63 62 56 54 37 44 53 54 58 59 60 63 65 66 65 63 63 58 59 60
39 39 40 40 41 43 44 45 45 46 47 50 50 50 52 51 53 57 61 71 75 81 78 60 64 65 56 56 56 60 58 59 62 62 65 66 64 67 68 64 65 60 62
39 41 42 43 45 46 46 46 46 47 50 53 55 57 57 57 56 58 61 64 76 69 70 63 66 67 67 72 68 65 64 61 63 65 67 65 67 70 71 71 72 69 69
41 43 46 47 47 47 50 54 55 54 54 53 54 55 58 56 58 59 60 61 61 50 59 51 68 68 76 78 73 71 68 64 63 64 67 65 68 73 74 76 76 74 73
47 49 51 52 52 51 51 52 52 52 57 56 58 59 60 59 60 58 59 61 64 70 71 67 77 74 74 80 75 74 69 66 64 64 64 64 69 74 74 74 73 70 69
49 50 52 53 53 54 54 55 55 55 56 55 54 59 62 61 65 64 63 63 66 69 83 87 81 74 76 81 76 74 69 68 69 67 64 62 68 71 61 60 58 59 59
48 50 49 49 49 51 52 56 59 60 61 61 59 60 61 59 62 63 64 66 67 67 73 86 81 81 77 78 78 77 69 67 70 67 61 65 59 51 54 64 65 67 65
45 45 46 47 48 49 49 51 56 59 62 64 64 66 66 65 64 63 63 64 65 65 68 74 85 81 79 77 78 76 73 72 71 69 64 57 44 54 57 58 59 59 63
51 51 52 53 53 54 54 55 58 61 61 62 62 63 65 67 68 65 63 63 63 64 65 68 78 82 78 75 75 77 78 75 80 72 58 62 63 59 56 54 57 61 66
51 54 56 57 59 61 59 62 63 66 67 66 64 63 63 65 66 65 65 63 61 62 63 67 72 77 78 75 71 72 75 84 81 63 65 83 69 55 50 53 58 63 65
60 64 65 67 68 68 67 68 69 71 72 71 70 65 66 67 66 65 61 59 57 61 64 65 69 74 73 68 70 71 78 80 80 70 83 77 68 55 57 65 62 53 44
65 67 69 69 71 71 68 69 69 73 73 73 72 69 68 68 67 68 62 56 55 56 61 65 67 70 69 65 71 75 74 66 73 80 79 77 55 62 63 54 45 47 59
64 66 68 69 72 70 67 67 68 73 74 73 71 69 69 67 65 65 64 58 58 57 61 63 69 66 68 64 66 66 63 68 75 68 60 62 56 64 62 33 53 59 62
66 68 71 71 72 72 66 67 69 72 74 73 71 70 67 66 61 56 53 60 58 57 57 63 59 60 58 60 57 57 58 65 69 61 48 42 55 69 58 31 71 54 62
71 73 75 75 76 76 67 67 67 70 72 73 72 68 64 57 48 46 49 52 58 59 59 49 45 51 55 56 52 48 52 55 50 45 25 47 49 62 47 50 70 63 70
Wind_Direction_500mb
315 316 319 320 320 321 320 321 320 321 321 321 319 319 319 318 316 314 312 312 312 310 310 307 307 309 311 313 314 312 312 312 309 308 310 311 306 305 292 285 276 270 265
318 321 320 321 322 320 320 321 318 317 319 322 322 321 320 317 314 311 309 313 316 317 316 316 317 315 314 312 314 313 313 317 321 316 309 309 306 302 308 302 290 283 281
318 319 319 320 320 320 320 318 318 320 326 325 324 323 322 319 320 325 334 337 342 335 323 319 324 325 319 316 314 311 311 311 312 318 321 320 317 313 301 295 302 296 290
312 312 314 315 317 316 315 313 311 317 322 323 325 325 324 323 329 350 2 336 326 331 333 330 330 327 321 319 316 315 314 312 312 315 316 313 314 311 309 301 300 299 297
301 304 310 316 317 316 314 314 317 322 325 328 331 332 330 328 336 14 345 2 345 346 348 335 330 326 322 318 316 317 317 317 319 318 316 312 311 312 310 307 309 306 301
297 304 312 316 317 314 311 310 317 324 330 334 340 338 330 327 332 355 1 350 4 353 345 337 329 323 320 319 318 319 318 316 314 311 308 311 308 311 302 305 302 303 302
292 300 308 312 312 308 304 301 308 317 322 329 339 351 336 327 251 343 346 343 351 348 344 336 331 325 321 320 320 319 319 317 317 316 313 316 311 305 305 300 298 298 298
285 295 304 310 311 308 302 298 304 314 320 331 342 346 336 310 288 328 334 328 336 336 339 336 333 326 321 320 320 320 321 319 316 312 309 307 305 305 304 301 300 299 294
285 296 306 313 313 309 302 293 295 301 306 317 329 340 331 302 319 311 322 316 325 326 331 332 331 324 317 317 316 317 316 314 312 309 307 304 302 301 299 297 297 296 295
281 293 302 308 312 307 303 294 291 291 293 300 307 310 310 307 313 310 307 310 315 320 323 326 331 330 320 316 317 316 317 314 311 309 306 304 302 299 299 296 294 292 290
282 289 295 299 301 303 301 292 287 285 287 289 292 299 300 303 301 297 302 308 308 313 318 321 325 327 319 316 314 316 316 315 314 310 307 304 302 300 299 297 294 289 288
284 288 291 294 295 295 294 292 286 284 283 285 287 290 293 295 296 297 296 302 305 307 309 313 318 321 320 312 315 317 316 315 313 309 306 303 302 300 297 293 291 290 288
286 290 292 293 294 293 293 290 287 285 285 285 286 287 286 288 289 291 292 295 300 303 306 308 313 318 320 318 315 319 316 313 313 311 309 306 303 300 297 292 290 290 287
293 294 294 295 296 296 295 294 292 289 286 284 283 283 284 285 285 286 287 293 297 298 302 305 312 314 317 319 317 318 317 316 315 313 312 307 303 299 295 292 292 291 289
297 298 298 298 297 296 293 290 289 288 286 286 287 286 285 286 285 285 284 285 286 288 294 297 306 312 312 313 316 318 318 317 315 314 312 306 303 299 296 295 294 293 290
297 297 296 296 295 295 294 293 293 291 286 285 283 283 283 285 285 285 285 283 280 280 278 285 296 304 307 308 313 317 318 315 315 316 310 305 303 299 297 295 296 292 288
298 298 298 296 296 294 293 292 291 291 290 290 288 286 285 285 284 284 283 283 281 281 281 289 294 302 303 305 310 316 318 316 317 319 314 312 306 303 303 302 300 297 294
300 301 300 300 300 296 293 292 290 289 290 290 290 288 290 290 287 285 283 282 283 284 284 288 294 297 300 304 310 315 317 317 318 318 323 318 313 313 312 303 297 293 292
301 299 299 300 300 300 299 297 295 292 289 290 290 289 290 291 291 292 288 283 283 283 284 285 289 293 298 304 311 312 316 319 320 323 329 315 315 321 314 308 298 296 294
308 308 307 307 305 304 304 302 299 297 295 293 292 290 290 288 288 290 289 286 283 282 283 282 285 290 295 303 309 312 315 321 323 326 331 314 329 325 315 307 302 298 292
304 304 303 303 303 304 305 304 301 298 297 296 296 295 293 289 286 286 286 286 283 280 280 280 281 286 293 301 308 311 315 321 321 329 330 318 331 329 325 317 310 300 293
301 300 299 299 299 299 302 302 301 300 296 295 297 297 296 292 291 285 283 282 277 279 279 277 277 280 289 299 307 308 313 318 321 323 326 318 331 332 336 331 323 320 324
300 300 300 300 299 298 298 300 299 297 298 297 297 299 296 294 290 288 285 279 272 268 271 275 273 279 288 300 301 303 306 308 308 315 318 315 336 333 342 334 332 327 314
300 301 303 302 301 302 303 302 299 296 296 296 296 296 294 293 290 288 288 283 279 270 266 263 263 278 284 290 290 294 304 304 305 310 315 311 342 333 345 341 341 330 323
300 301 302 303 303 303 304 302 300 297 296 295 296 295 292 290 288 283 284 286 282 282 275 264 268 275 279 284 292 294 294 298 304 314 313 322 342 334 346 349 350 338 335
299 299 300 302 304 304 304 302 300 297 296 296 295 294 293 293 288 284 280 276 277 281 285 281 263 268 277 283 290 288 293 291 297 310 303 329 336 348 337 340 350 351 346
Wind_Speed_850mb
21 23 25 25 25 25 24 23 22 21 20 21 22 22 23 24 25 25 27 27 28 29 29 28 30 32 32 33 33 31 33 33 35 34 34 32 31 33 40 42 45 49 53
22 24 23 22 23 25 26 24 21 18 18 20 22 24 25 25 26 25 23 22 23 24 25 26 28 31 34 35 34 35 36 35 33 34 37 38 35 31 36 38 38 39 43
22 22 22 23 25 27 28 24 22 21 20 21 23 24 25 26 23 20 18 18 20 24 30 34 31 32 35 37 38 39 38 38 38 37 34 32 31 31 31 33 37 35 37
21 21 22 25 27 28 25 20 17 17 19 20 21 21 23 19 15 13 16 24 29 25 29 32 36 39 44 46 48 48 47 45 42 35 33 35 33 34 32 36 39 40 40
20 21 24 27 28 28 24 20 20 20 18 17 20 21 17 12 10 9 31 18 27 25 27 36 42 45 48 50 51 51 49 43 35 31 32 31 33 37 37 36 37 35 36
21 23 27 30 30 27 24 22 21 22 23 22 20 20 14 8 5 22 21 28 22 31 36 43 47 51 51 50 50 49 49 48 46 41 44 43 41 39 38 37 38 40 41
23 25 28 30 30 27 24 22 21 21 21 22 19 17 9 11 2 35 20 23 24 36 41 51 54 53 52 52 50 48 46 47 48 47 45 38 33 38 42 41 41 40 39
24 27 29 30 30 28 26 24 23 22 21 22 25 21 10 10 7 35 28 23 30 37 47 51 51 51 54 48 43 43 44 46 48 50 47 42 43 42 44 44 45 45 45
25 27 29 31 32 31 27 26 26 24 23 21 22 16 10 8 45 16 34 25 49 41 52 53 52 54 45 41 41 43 46 49 52 56 57 59 57 51 47 49 50 50 49
28 28 29 30 31 32 30 29 29 28 28 26 26 24 25 29 22 28 28 54 48 57 56 55 58 46 43 39 44 44 47 53 55 57 59 61 63 59 54 53 53 54 54
31 32 33 34 33 33 32 32 33 34 34 33 32 34 36 37 40 40 60 62 69 60 60 62 58 52 39 44 41 44 52 55 57 60 61 64 66 66 62 58 55 56 57
37 40 43 44 44 42 39 37 38 40 40 41 41 42 42 43 50 49 61 73 76 73 63 63 62 56 54 37 44 53 54 58 59 60 63 65 66 65 63 63 58 59 60
39 39 40 40 41 43 44 45 45 46 47 50 50 50 52 51 53 57 61 71 75 81 78 60 64 65 56 56 56 60 58 59 62 62 65 66 64 67 68 64 65 60 62
39 41 42 43 45 46 46 46 46 47 50 53 55 57 57 57 56 58 61 64 76 69 70 63 66 67 67 72 68 65 64 61 63 65 67 65 67 70 71 71 72 69 69
41 43 46 47 47 47 50 54 55 54 54 53 54 55 58 56 58 59 60 61 61 50 59 51 68 68 76 78 73 71 68 64 63 64 67 65 68 73 74 76 76 74 73
47 49 51 52 52 51 51 52 52 52 57 56 58 59 60 59 60 58 59 61 64 70 71 67 77 74 74 80 75 74 69 66 64 64 64 64 69 74 74 74 73 70 69
49 50 52 53 53 54 54 55 55 55 56 55 54 59 62 61 65 64 63 63 66 69 83 87 81 74 76 81 76 74 69 68 69 67 64 62 68 71 61 60 58 59 59
48 50 49 49 49 51 52 56 59 60 61 61 59 60 61 59 62 63 64 66 67 67 73 86 81 81 77 78 78 77 69 67 70 67 61 65 59 51 54 64 65 67 65
45 45 46 47 48 49 49 51 56 59 62 64 64 66 66 65 64 63 63 64 65 65 68 74 85 81 79 77 78 76 73 72 71 69 64 57 44 54 57 58 59 59 63
51 51 52 53 53 54 54 55 58 61 61 62 62 63 65 67 68 65 63 63 63 64 65 68 78 82 78 75 75 77 78 75 80 72 58 62 63 59 56 54 57 61 66
51 54 56 57 59 61 59 62 63 66 67 66 64 63 63 65 66 65 65 63 61 62 63 67 72 77 78 75 71 72 75 84 81 63 65 83 69 55 50 53 58 63 65
60 64 65 67 68 68 67 68 69 71 72 71 70 65 66 67 66 65 61 59 57 61 64 65 69 74 73 68 70 71 78 80 80 70 83 77 68 55 57 65 62 53 44
65 67 69 69 71 71 68 69 69 73 73 73 72 69 68 68 67 68 62 56 55 56 61 65 67 70 69 65 71 75 74 66 73 80 79 77 55 62 63 54 45 47 59
64 66 68 69 72 70 67 67 68 73 74 73 71 69 69 67 65 65 64 58 58 57 61 63 69 66 68 64 66 66 63 68 75 68 60 62 56 64 62 33 53 59 62
66 68 71 71 72 72 66 67 69 72 74 73 71 70 67 66 61 56 53 60 58 57 57 63 59 60 58 60 57 57 58 65 69 61 48 42 55 69 58 31 71 54 62
71 73 75 75 76 76 67 67 67 70 72 73 72 68 64 57 48 46 49 52 58 59 59 49 45 51 55 56 52 48 52 55 50 45 25 47 49 62 47 50 70 63 70
Wind_Direction_850mb
315 316 319 320 320 321 320 321 320 321 321 321 319 319 319 318 316 314 312 312 312 310 310 307 307 309 311 313 314 312 312 312 309 308 310 311 306 305 292 285 276 270 265
318 321 320 321 322 320 320 321 318 317 319 322 322 321 320 317 314 311 309 313 316 317 316 316 317 315 314 312 314 313 313 317 321 316 309 309 306 302 308 302 290 283 281
318 319 319 320 320 320 320 318 318 320 326 325 324 323 322 319 320 325 334 337 342 335 323 319 324 325 319 316 314 311 311 311 312 318 321 320 317 313 301 295 302 296 290
312 312 314 315 317 316 315 313 311 317 322 323 325 325 324 323 329 350 2 336 326 331 333 330 330 327 321 319 316 315 314 312 312 315 316 313 314 311 309 301 300 299 297
301 304 310 316 317 316 314 314 317 322 325 328 331 332 330 328 336 14 345 2 345 346 348 335 330 326 322 318 316 317 317 317 319 318 316 312 311 312 310 307 309 306 301
297 304 312 316 317 314 311 310 317 324 330 334 340 338 330 327 332 355 1 350 4 353 345 337 329 323 320 319 318 319 318 316 314 311 308 311 308 311 302 305 302 303 302
292 300 308 312 312 308 304 301 308 317 322 329 339 351 336 327 251 343 346 343 351 348 344 336 331 325 321 320 320 319 319 317 317 316 313 316 311 305 305 300 298 298 298
285 295 304 310 311 308 302 298 304 314 320 331 342 346 336 310 288 328 334 328 336 336 339 336 333 326 321 320 320 320 321 319 316 312 309 307 305 305 304 301 300 299 294
285 296 306 313 313 309 302 293 295 301 306 317 329 340 331 302 319 311 322 316 325 326 331 332 331 324 317 317 316 317 316 314 312 309 307 304 302 301 299 297 297 296 295
281 293 302 308 312 307 303 294 291 291 293 300 307 310 310 307 313 310 307 310 315 320 323 326 331 330 320 316 317 316 317 314 311 309 306 304 302 299 299 296 294 292 290
282 289 295 299 301 303 301 292 287 285 287 289 292 299 300 303 301 297 302 308 308 313 318 321 325 327 319 316 314 316 316 315 314 310 307 304 302 300 299 297 294 289 288
284 288 291 294 295 295 294 292 286 284 283 285 287 290 293 295 296 297 296 302 305 307 309 313 318 321 320 312 315 317 316 315 313 309 306 303 302 300 297 293 291 290 288
286 290 292 293 294 293 293 290 287 285 285 285 286 287 286 288 289 291 292 295 300 303 306 308 313 318 320 318 315 319 316 313 313 311 309 306 303 300 297 292 290 290 287
293 294 294 295 296 296 295 294 292 289 286 284 283 283 284 285 285 286 287 293 297 298 302 305 312 314 317 319 317 318 317 316 315 313 312 307 303 299 295 292 292 291 289
297 298 298 298 297 296 293 290 289 288 286 286 287 286 285 286 285 285 284 285 286 288 294 297 306 312 312 313 316 318 318 317 315 314 312 306 303 299 296 295 294 293 290
297 297 296 296 295 295 294 293 293 291 286 285 283 283 283 285 285 285 285 283 280 280 278 285 296 304 307 308 313 317 318 315 315 316 310 305 303 299 297 295 296 292 288
298 298 298 296 296 294 293 292 291 291 290 290 288 286 285 285 284 284 283 283 281 281 281 289 294 302 303 305 310 316 318 316 317 319 314 312 306 303 303 302 300 297 294
300 301 300 300 300 296 293 292 290 289 290 290 290 288 290 290 287 285 283 282 283 284 284 288 294 297 300 304 310 315 317 317 318 318 323 318 313 313 312 303 297 293 292
301 299 299 300 300 300 299 297 295 292 289 290 290 289 290 291 291 292 288 283 283 283 284 285 289 293 298 304 311 312 316 319 320 323 329 315 315 321 314 308 298 296 294
308 308 307 307 305 304 304 302 299 297 295 293 292 290 290 288 288 290 289 286 283 282 283 282 285 290 295 303 309 312 315 321 323 326 331 314 329 325 315 307 302 298 292
304 304 303 303 303 304 305 304 301 298 297 296 296 295 293 289 286 286 286 286 283 280 280 280 281 286 293 301 308 311 315 321 321 329 330 318 331 329 325 317 310 300 293
301 300 299 299 299 299 302 302 301 300 296 295 297 297 296 292 291 285 283 282 277 279 279 277 277 280 289 299 307 308 313 318 321 323 326 318 331 332 336 331 323 320 324
300 300 300 300 299 298 298 300 299 297 298 297 297 299 296 294 290 288 285 279 272 268 271 275 273 279 288 300 301 303 306 308 308 315 318 315 336 333 342 334 332 327 314
300 301 303 302 301 302 303 302 299 296 296 296 296 296 294 293 290 288 288 283 279 270 266 263 263 278 284 290 290 294 304 304 305 310 315 311 342 333 345 341 341 330 323
300 301 302 303 303 303 304 302 300 297 296 295 296 295 292 290 288 283 284 286 282 282 275 264 268 275 279 284 292 294 294 298 304 314 313 322 342 334 346 349 350 338 335
299 299 300 302 304 304 304 302 300 297 296 296 295 294 293 293 288 284 280 276 277 281 285 281 263 268 277 283 290 288 293 291 297 310 303 329 336 348 337 340 350 351 346